[ hide orbit diagram ]
For accurate long-term ephemerides, please instead use our Horizons system.This orbit viewer was implemented using two-body methods, and hence should not be used for determining accurate long-term trajectories (over several years or decades) or planetary encounter circumstances.
Orbital Elements at Epoch 2459200.5 (2020-Dec-17.0) TDB
Reference: JPL 14 (heliocentric ecliptic J2000)
Element | Value | Uncertainty (1-sigma) | Units |
e | .1946437076572627 | 6.8034e-08 | |
a | 3.122114689865271 | 3.8649e-08 | au |
q | 2.51441471089869 | 2.2471e-07 | au |
i | 3.934648693146707 | 6.3708e-06 | deg |
node | 106.1255812465492 | 0.00012527 | deg |
peri | 300.9966324513231 | 0.00012675 | deg |
M | 97.92733854455977 | 2.3442e-05 | deg |
tp | 2458652.383145696597 (2019-Jun-17.88314570) | 0.00012492 | TDB |
period | 2014.984482187657 5.52 | 3.7415e-05 1.024e-07 | d yr |
n | .1786614255257937 | 3.3175e-09 | deg/d |
Q | 3.729814668831853 | 4.6172e-08 | au |
|
| | Orbit Determination Parameters
Additional Information
|
[ show covariance matrix ]
Physical Parameter Table
Parameter |
Symbol |
Value |
Units |
Sigma |
Reference |
Notes |
absolute magnitude |
H |
16.1 |
|
n/a |
MPO454702 |
|
|
234963 (2002 WU29) Discovered 2002-Nov-22 by NEAT at Palomar |
Reference: 20100330/Numbers.arc | Last Updated: 2010-04-05 |
|
[ show close-approach data ]
|